Treviso/Istrana, Italy

2:37 PM CET on February 21, 2017 (GMT +0100)
Istrana Mil

Weather History for LIPS - April, 2014

Change the Weather History Date:

Saturday, April 19, 2014

  Actual Average Record
Temperature  
Mean Temperature 58 °F -  
Max Temperature 66 °F 69 °F 80 °F (2013)
Min Temperature 51 °F 49 °F 39 °F (1997)
Degree Days  
Heating Degree Days 6    
Growing Degree Days 8 (Base 50)    
Moisture  
Dew Point 47 °F    
Average Humidity 67    
Maximum Humidity 88    
Minimum Humidity 37    
Precipitation  
Precipitation 0.01 in 0.12 in - ()
Sea Level Pressure  
Sea Level Pressure 29.73 in    
Wind  
Wind Speed 10 mph ()    
Max Wind Speed 15 mph    
Max Gust Speed -    
Visibility 6.9 miles    
Events Rain    
Averages and records for this station are not official NWS values.
T = Trace of Precipitation, MM = Missing Value Source: Averaged Metar Reports

Daily Weather History Graph

Daily Weather History Graph

Search for Another Location

Airport or City:

Trip Planner

Search our weather history database for the weather conditions in past years. The results will help you decide how hot, cold, wet, or windy it might be!

Date:

Astronomy

Apr. 19, 2014 Rise Set
Actual Time 6:19 AM CEST 8:03 PM CEST
Civil Twilight 5:47 AM CEST 8:34 PM CEST
Nautical Twilight 5:09 AM CEST 9:13 PM CEST
Astronomical Twilight 4:28 AM CEST 9:54 PM CEST
Moon No Moon Rise 9:14 AM CEST (4/19)
Length of Visible Light 14h 46m
Length of Day
13h 43m
Waning Gibbous, 81% of the Moon is Illuminated
Apr 19
Waning Gibbous
Apr 22
Last Quarter
Apr 29
New
May 7
First Quarter
May 14
Full

Hourly Weather History & Observations

Time (CEST) Temp. Dew Point Humidity Pressure Visibility Wind Dir Wind Speed Gust Speed Precip Events Conditions
12:00 AM 54 °F 46 °F 66% 29.70 in 6 mi Calm Calm - -   Mostly Cloudy
12:55 AM 53.6 °F 48.2 °F 82% 29.68 in 6.2 mi East 15.0 mph - N/A   Mostly Cloudy
1:00 AM 54 °F 48 °F 74% 29.70 in 6 mi East 15.0 mph - -   Mostly Cloudy
1:55 AM 53.6 °F 48.2 °F 82% 29.68 in 6.2 mi East 9.2 mph - N/A   Mostly Cloudy
2:00 AM 54 °F 48 °F 72% 29.70 in 6 mi East 9.2 mph - -   Mostly Cloudy
3:55 AM 53.6 °F 48.2 °F 82% 29.68 in 6.2 mi NE 15.0 mph - N/A   Overcast
4:00 AM 53 °F 49 °F 80% 29.71 in 6 mi NE 15.0 mph - -   Overcast
4:55 AM 51.8 °F 48.2 °F 88% 29.68 in 6.2 mi NE 12.7 mph - N/A Rain Light Rain
5:00 AM 52 °F 48 °F 80% 29.71 in 6 mi NE 12.7 mph - - Rain Light Rain
5:55 AM 51.8 °F 48.2 °F 88% 29.68 in 6.2 mi NE 11.5 mph - N/A Rain Light Rain
6:00 AM 53 °F 48 °F 78% 29.71 in 6 mi NE 11.5 mph - - Rain Light Rain
6:55 AM 51.8 °F 48.2 °F 88% 29.68 in 4.3 mi NNE 10.4 mph - N/A Rain Light Rain
7:00 AM 52 °F 47 °F 79% 29.71 in 4 mi NNE 10.4 mph - - Rain Light Rain
7:55 AM 51.8 °F 46.4 °F 82% 29.71 in 5.0 mi NNE 8.1 mph - N/A   Mostly Cloudy
8:00 AM 52 °F 47 °F 78% 29.74 in 5 mi NNE 8.1 mph - - Rain Light Rain
8:55 AM 53.6 °F 44.6 °F 72% 29.74 in 6.2 mi NE 15.0 mph - N/A Rain Light Rain
9:00 AM 53 °F 45 °F 65% 29.75 in 7 mi NE 15.0 mph - - Rain Light Rain
9:55 AM 55.4 °F 46.4 °F 72% 29.74 in 6.2 mi NNE 12.7 mph - N/A   Mostly Cloudy
10:00 AM 55 °F 47 °F 65% 29.75 in 7 mi NNE 12.7 mph - - Rain Light Rain
10:55 AM 55.4 °F 44.6 °F 67% 29.74 in 6.2 mi NNE 11.5 mph - N/A   Mostly Cloudy
11:00 AM 56 °F 45 °F 56% 29.76 in 9 mi NNE 11.5 mph - -   Partly Cloudy
11:55 AM 57.2 °F 46.4 °F 67% 29.74 in 6.2 mi NE 11.5 mph - N/A   Mostly Cloudy
12:00 PM 57 °F 46 °F 56% 29.77 in 9 mi NE 11.5 mph - -   Mostly Cloudy
12:55 PM 59.0 °F 42.8 °F 55% 29.74 in 6.2 mi NE 13.8 mph - N/A   Mostly Cloudy
1:00 PM 59 °F 43 °F 45% 29.77 in 9 mi NE 13.8 mph - -   Mostly Cloudy
1:55 PM 62.6 °F 44.6 °F 52% 29.74 in 6.2 mi NE 13.8 mph - N/A   Scattered Clouds
2:00 PM 63 °F 44 °F 38% 29.76 in 9 mi NE 13.8 mph - -   Partly Cloudy
2:55 PM 62.6 °F 44.6 °F 52% 29.74 in 6.2 mi ENE 15.0 mph - N/A   Partly Cloudy
3:00 PM 63 °F 46 °F 42% 29.76 in 9 mi ENE 15.0 mph - -   Scattered Clouds
3:55 PM 64.4 °F 46.4 °F 52% 29.74 in 6.2 mi ENE 12.7 mph - N/A   Partly Cloudy
4:00 PM 64 °F 47 °F 44% 29.75 in 9 mi ENE 12.7 mph - -   Scattered Clouds
4:55 PM 64.4 °F 44.6 °F 49% 29.71 in 6.2 mi NE 12.7 mph - N/A   Scattered Clouds
5:00 PM 64 °F 44 °F 37% 29.73 in 9 mi NE 12.7 mph - -   Partly Cloudy
5:55 PM 64.4 °F 44.6 °F 49% 29.71 in 6.2 mi ENE 9.2 mph - N/A   Scattered Clouds
6:00 PM 64 °F 44 °F 37% 29.73 in 9 mi ENE 9.2 mph - -   Partly Cloudy
6:55 PM 62.6 °F 46.4 °F 55% 29.71 in 6.2 mi NE 12.7 mph - N/A   Scattered Clouds
7:00 PM 63 °F 46 °F 43% 29.74 in 9 mi NE 12.7 mph - -   Partly Cloudy
7:55 PM 60.8 °F 48.2 °F 63% 29.71 in 6.2 mi NE 10.4 mph - N/A   Scattered Clouds
8:00 PM 61 °F 48 °F 51% 29.74 in 9 mi NE 10.4 mph - -   Partly Cloudy
8:55 PM 57.2 °F 51.8 °F 82% 29.74 in 6.2 mi East 4.6 mph - N/A   Scattered Clouds
9:00 PM 57 °F 52 °F 77% 29.74 in 9 mi East 4.6 mph - -   Scattered Clouds
9:55 PM 55.4 °F 51.8 °F 88% 29.74 in 6.2 mi East 3.5 mph - N/A   Mostly Cloudy
10:00 PM 55 °F 51 °F 81% 29.75 in 9 mi East 3.5 mph - -   Mostly Cloudy
10:55 PM 53.6 °F 50.0 °F 88% 29.71 in 6.2 mi Calm Calm - N/A   Mostly Cloudy
11:00 PM 54 °F 50 °F 82% 29.74 in 9 mi Calm Calm - -   Mostly Cloudy
11:55 PM 53.6 °F 50.0 °F 88% 29.71 in 6.2 mi Calm Calm - N/A   Mostly Cloudy